Location: Maccacari
(45.1333°N, 11.1333°E)
Time: 07:30:11
(UTC+00:00)

NOSS 2-2 (D) - Pass Details

Date: 18 September 2020
Orbit: 469 x 1739 km, 63.3° (Epoch: 23 October)

Event Time Altitude Azimuth Distance (km) Brightness Sun altitude
Rises 19:20:20 0° 236° (SW) 2,503 7.1 -21.3°
Reaches altitude 10° 19:22:28 10° 244° (WSW) 1,630 6.2 -21.7°
Maximum altitude 19:25:47 39° 316° (NW) 752 4.5 -22.2°
Drops below altitude 10° 19:29:31 10° 27° (NNE) 1,836 6.0 -22.8°
Sets 19:32:04 0° 35° (NE) 2,875 6.9 -23.2°
